Regional Weather Roundup
Issued by NWS

Home | Current Version | Previous Version | Text Only | Print | Product List | Glossary On
Versions: 1 2 3 4 5 6 7 8 9 10 11 12 13 14 15 16 17 18 19 20 21 22 23 24 25 26 27 28 29 30 31 32 33 34 35 36 37 38 39 40 41 42 43 44 45 46 47 48 49 50
000
ASUS44 KFWD 221815
RWRTX
NORTH TEXAS HOURLY WEATHER ROUNDUP
NATIONAL WEATHER SERVICE FORT WORTH TX
1200 PM CST MON DEC 22 2014

NOTE: "FAIR" INDICATES FEW OR NO CLOUDS BELOW 12,000 FEET WITH NO
SIGNIFICANT WEATHER AND/OR OBSTRUCTIONS TO VISIBILITY.

TXZ118-119-221900-
DALLAS/FORT WORTH METROPLEX

CITY           SKY/WX    TMP DP  RH WIND       PRES   REMARKS
DFW AIRPORT    MOSUNNY   63  42  46 W10       29.59F
6HR MIN TEMP:  49; 6HR MAX TEMP:  63;

DALLAS LOVE    MOSUNNY   64  44  48 W12       29.59F
6HR MIN TEMP:  52; 6HR MAX TEMP:  64;

FTW MEACHAM    SUNNY     62  43  49 W10       29.60S
6HR MIN TEMP:  49; 6HR MAX TEMP:  63;

DAL-EXECUTIVE  SUNNY     67  41  38 W14       29.58F
6HR MIN TEMP:  55; 6HR MAX TEMP:  67;

FTW-ALLIANCE   MOSUNNY   59  40  49 W13       29.60F
6HR MIN TEMP:  48; 6HR MAX TEMP:  60;

FTW-SPINKS     SUNNY     64  39  39 W13G21    29.62S
ARLINGTON      SUNNY     65  39  38 W15       29.59F
6HR MIN TEMP:  52; 6HR MAX TEMP:  65;

GRAND PRAIRIE  SUNNY     63  43  48 W16       29.61F
ADDISON        MOSUNNY   63  45  51 SW7G15    29.61S
MESQUITE       SUNNY    N/A N/A N/A SW12      29.59F
LANCASTER      SUNNY     64  43  46 W12       29.61S
6HR MIN TEMP:  53; 6HR MAX TEMP:  64;

$$

TXZ091>094-102>105-117-120-121-131>134-221900-
NORTH CENTRAL TEXAS

CITY           SKY/WX    TMP DP  RH WIND       PRES   REMARKS
SHRMAN/DENISON MOSUNNY   61  49  64 W6        29.60F
6HR MIN TEMP:  51; 6HR MAX TEMP:  61;

GAINESVILLE    MOSUNNY   57  43  59 NW10      29.61F
6HR MIN TEMP:  45; 6HR MAX TEMP:  57;

BOWIE          MOSUNNY   54  45  72 NW18G24   29.63S
6HR MIN TEMP:  44; 6HR MAX TEMP:  55;

BRIDGEPORT     SUNNY     55  46  72 NW10G17   29.65S
6HR MIN TEMP:  48; 6HR MAX TEMP:  56;

DECATUR        SUNNY     55  44  65 W12       29.61F
6HR MIN TEMP:  47; 6HR MAX TEMP:  55;

DENTON         SUNNY     59  42  53 W13       29.58F
6HR MIN TEMP:  47; 6HR MAX TEMP:  60;

MCKINNEY       SUNNY     62  47  57 W14       29.59F
6HR MIN TEMP:  51; 6HR MAX TEMP:  63;

GREENVILLE     SUNNY     64  46  52 SW10G16   29.57F
ROCKWALL       SUNNY     64  47  54 SW14      29.57F
6HR MIN TEMP:  56; 6HR MAX TEMP:  64;

TERRELL        SUNNY     67  50  54 SW16G24   29.58F
6HR MIN TEMP:  58; 6HR MAX TEMP:  67;

WAXAHACHIE     SUNNY     65  47  51 W13       29.61F
6HR MIN TEMP:  52; 6HR MAX TEMP:  65;

CLEBURNE       SUNNY     66  39  37 W13G18    29.64S
GRANBURY       SUNNY     65  39  37 W18G24    29.64S
6HR MIN TEMP:  52; 6HR MAX TEMP:  66;

$$

TXZ083>090-098>101-113>116-127>130-139>142-154-155-221900-
WESTERN NORTH TEXAS

CITY           SKY/WX    TMP DP  RH WIND       PRES   REMARKS
WICHITA FALLS  MOSUNNY   56  42  59 N15       29.64S
6HR MIN TEMP:  40; 6HR MAX TEMP:  56;

WF-KICKAPOO    SUNNY     55  41  58 NW13      29.65F
6HR MIN TEMP:  42; 6HR MAX TEMP:  55;

VERNON         MOSUNNY   59  33  36 N23G29    29.64F
6HR MIN TEMP:  32; 6HR MAX TEMP:  63;

ABILENE        MOSUNNY   62  36  37 N15       29.70F
6HR MIN TEMP:  48; 6HR MAX TEMP:  62;

BRECKENRIDGE   MOSUNNY   62  39  42 NW14G21   29.66F
6HR MIN TEMP:  49; 6HR MAX TEMP:  62;

GRAHAM         SUNNY     58  44  60 NW13G18   29.65F
6HR MIN TEMP:  46; 6HR MAX TEMP:  58;

MINERAL WELLS  SUNNY     59  42  53 W12       29.63S
6HR MIN TEMP:  45; 6HR MAX TEMP:  59; 6HR PCP: TRACE;

STEPHENVILLE   SUNNY     64  34  32 W13G21    29.66F
6HR MIN TEMP:  51; 6HR MAX TEMP:  65;

COMANCHE       SUNNY     65  39  37 NW16G24   29.67F
6HR MIN TEMP:  51; 6HR MAX TEMP:  65;

BROWNWOOD      MOSUNNY   66  36  32 NW20      29.68F
COLEMAN        MOSUNNY   66  39  36 NW14G22   29.70F
6HR MIN TEMP:  50; 6HR MAX TEMP:  66;

BRADY          SUNNY     66  39  37 W12       29.69F
$$

TXZ143>147-156>162-174-175-221900-
CENTRAL TEXAS

CITY           SKY/WX    TMP DP  RH WIND       PRES   REMARKS
WACO           MOSUNNY   69  45  41 W16       29.62F
6HR MIN TEMP:  55; 6HR MAX TEMP:  70;

WACO-TSTC      SUNNY     70  46  43 SW20G28   29.62F
WACO-MCGREGOR  MOSUNNY   70  50  49 W14       29.65S
6HR MIN TEMP:  55; 6HR MAX TEMP:  70;

HILLSBORO      SUNNY     67  44  43 W17       29.62F
6HR MIN TEMP:  53; 6HR MAX TEMP:  67;

CORSICANA      MOSUNNY   67  52  58 SW16G26   29.62F
6HR MIN TEMP:  59; 6HR MAX TEMP:  67;

MEXIA          MOSUNNY   65  53  63 SW17G24   29.62F
6HR MIN TEMP:  57; 6HR MAX TEMP:  65;

HEARNE         PTSUNNY   69  53  57 S16       29.66F
6HR MIN TEMP:  59; 6HR MAX TEMP:  70;

CAMERON        PTSUNNY   67  54  63 SW15G21   29.65F
6HR MIN TEMP:  57; 6HR MAX TEMP:  67;

TEMPLE         MOSUNNY   66  46  48 SW20      29.64F
6HR MIN TEMP:  55; 6HR MAX TEMP:  66;

KILLEEN        NOT AVBL
KILLEEN-SKYLRK PTSUNNY   68  48  49 W12G17    29.65R
6HR MIN TEMP:  55; 6HR MAX TEMP:  68;

GATESVILLE     MOSUNNY   68  45  42 W15G24    29.67S
HAMILTON       SUNNY     66  38  36 W20G36    29.66F
6HR MIN TEMP:  53; 6HR MAX TEMP:  67;

$$

TXZ095>097-106>112-122>126-135>138-148>153-164>167-221900-
EAST TEXAS

CITY           SKY/WX    TMP DP  RH WIND       PRES   REMARKS
PARIS          CLOUDY    63  50  63 SW15G23   29.58F
6HR MIN TEMP:  52; 6HR MAX TEMP:  63;

SULPHUR SPRNGS PTSUNNY   64  51  60 SW17G23   29.61S
6HR MIN TEMP:  56; 6HR MAX TEMP:  65;

MOUNT PLEASANT PTSUNNY   63  54  72 S8        29.60F
6HR MIN TEMP:  54; 6HR MAX TEMP:  64;

MINEOLA        PTSUNNY   64  52  63 SW12G21   29.60F
TYLER          PTSUNNY   66  52  60 SW10G21   29.59F
6HR MIN TEMP:  57; 6HR MAX TEMP:  66;

LONGVIEW       PTSUNNY   65  55  70 SW17      29.61F
6HR MIN TEMP:  54; 6HR MAX TEMP:  65;

MARSHALL       CLOUDY    64  59  85 S12       29.64F
6HR MIN TEMP:  53; 6HR MAX TEMP:  64;

ATHENS         PTSUNNY   64  50  59 SW10G21   29.60F
PALESTINE      MOSUNNY   68  54  59 S17G23    29.63F
JACKSONVILLE   MOSUNNY   66  56  69 SW10G20   29.64F
HENDERSON      CLOUDY    65  55  69 SW7G18    29.63F
6HR MIN TEMP:  54; 6HR MAX TEMP:  66;

NACOGDOCHES    CLOUDY    66  57  72 SW15      29.65F
6HR MIN TEMP:  54; 6HR MAX TEMP:  66;

LUFKIN         CLOUDY    69  57  65 SW18      29.65F
6HR MIN TEMP:  56; 6HR MAX TEMP:  69;

$$

SUPPLEMENTAL OBSERVATIONS (CENTRAL)

CITY           SKY/WX    TMP DP  RH WIND       PRES   REMARKS
LAKE TEXOMA      N/A     55  46  71 W9          N/A
CADDO GRASSLND   N/A     63  48  59 SW9G17      N/A
PAT MAYSE LAKE   N/A     57  50  77 S13         N/A
ATHENS           N/A     66  50  55 W9G21       N/A
MCGREGOR         N/A     70  50  49 SW13G21     N/A
TEMPLE           N/A     66  46  48 W7G16       N/A
$$

SUPPLEMENTAL OBSERVATIONS (WEST)

CITY           SKY/WX    TMP DP  RH WIND       PRES   REMARKS
MILLERS CREEK    N/A     59  45  58 N14         N/A
LBJ GRASSLAND    N/A     55  45  67 NW13        N/A
GRANBURY         N/A     64  37  36 NW20G26     N/A
HAMBY            N/A     61  36  39 N10G21      N/A
COLORADO BEND    N/A     66  43  42 W10         N/A
$$

SUPPLEMENTAL OBSERVATIONS (EAST)

CITY           SKY/WX    TMP DP  RH WIND       PRES   REMARKS
CLARKSVILLE      N/A     63  55  77 S9G17       N/A
TEXARKANA        N/A     55  50  82 SE5         N/A
LINDEN           N/A     61  55  82 S3          N/A
CADDO LAKE       N/A     61  57  88 SE5         N/A


USA.gov is the U.S. government's official web portal to all federal, state and local government web resources and services.